AKST,Max TemperatureF,Mean TemperatureF,Min TemperatureF,Max Dew PointF,MeanDew PointF,Min DewpointF,Max Humidity, Mean Humidity, Min Humidity, Max Sea Level PressureIn, Mean Sea Level PressureIn, Min Sea Level PressureIn, Max VisibilityMiles, Mean VisibilityMiles, Min VisibilityMiles, Max Wind SpeedMPH, Mean Wind SpeedMPH, Max Gust SpeedMPH,PrecipitationIn, CloudCover, Events, WindDirDegrees
2014-1-1,42,39,36,37,31,25,0,0,0,29.58,29.16,28.84,10,10,7,23,10,31,0.06,6,Rain-Snow,207
2014-1-2,40,34,27,28,25,23,0,0,0,30.09,29.91,29.61,10,10,10,22,5,25,0.00,3,,267
2014-1-3,39,33,27,36,30,23,0,0,0,30.19,30.13,30.00,10,9,4,24,7,30,0.12,6,Rain,315
2014-1-4,43,39,35,43,39,35,0,0,0,29.96,29.44,29.20,6,2,0,15,20,18,1.75,8,Fog-Rain-Snow,51
2014-1-5,43,41,39,42,39,36,0,0,0,29.57,29.46,29.21,10,7,2,24,13,30,0.45,7,Rain,134
2014-1-6,43,40,37,41,37,34,0,0,0,29.65,29.58,29.51,10,9,3,22,9,25,0.07,7,Rain,131
2014-1-7,41,39,36,40,38,33,0,0,0,29.52,29.38,29.26,10,7,2,26,12,31,0.34,8,Rain,95
2014-1-8,40,33,26,34,30,24,0,0,0,29.32,29.30,29.27,10,10,10,10,4,12,0.00,3,,273
2014-1-9,35,31,26,29,26,24,0,0,0,29.44,29.32,29.26,10,10,10,8,4,9,0.00,5,,274
2014-1-10,37,29,21,28,24,18,0,0,0,29.47,29.43,29.33,10,10,10,8,3,10,0.00,3,,271
2014-1-11,34,27,19,34,27,17,0,0,0,29.31,29.05,28.93,10,6,1,8,3,9,0.18,7,Rain-Snow,275
2014-1-12,35,28,20,32,26,19,0,0,0,29.43,29.13,28.92,10,9,0,22,5,28,0.01,5,Fog-Snow,286
2014-1-13,39,29,18,37,29,16,0,0,0,29.51,29.22,28.86,10,6,0,31,10,37,0.47,6,Fog-Rain-Snow,59
2014-1-14,42,36,29,35,29,23,0,0,0,29.60,29.11,28.69,10,10,5,32,12,44,0.10,4,Rain,202
2014-1-15,45,38,31,39,36,27,0,0,0,29.60,29.51,29.36,10,7,2,16,7,24,0.50,8,Rain,116
2014-1-16,42,37,32,41,35,31,0,0,0,29.57,29.43,29.21,10,8,2,30,9,37,1.84,7,Rain,5
2014-1-17,46,43,40,45,39,35,0,0,0,29.19,28.98,28.88,10,6,2,36,17,45,2.74,8,Rain,133
2014-1-18,41,34,27,37,27,22,0,0,0,29.74,29.38,28.94,10,10,9,12,8,14,0.04,5,Rain,217
2014-1-19,44,36,27,43,38,24,0,0,0,29.73,29.49,29.39,10,5,1,38,22,47,0.81,8,Rain,81
2014-1-20,45,43,41,43,41,39,0,0,0,29.57,29.50,29.39,7,3,1,32,22,39,1.21,8,Rain,110
2014-1-21,41,36,31,40,36,30,0,0,0,29.58,29.38,29.24,10,7,2,20,8,26,0.26,7,Rain-Snow,117
2014-1-22,43,40,37,43,41,37,0,0,0,29.55,29.36,29.31,10,3,0,21,12,25,0.71,8,Fog-Rain,73
2014-1-23,46,42,38,43,41,39,0,0,0,29.62,29.50,29.37,10,5,0,26,8,32,0.54,7,Fog-Rain,72
2014-1-24,44,38,32,43,38,32,0,0,0,30.03,29.88,29.49,10,7,1,25,6,31,0.29,6,Rain,88
2014-1-25,43,42,40,43,41,39,0,0,0,29.92,29.83,29.63,8,5,2,24,17,30,0.13,8,Rain,60
2014-1-26,43,43,42,43,42,39,0,0,0,29.76,29.65,29.55,8,3,0,28,18,38,0.83,8,Rain,78
2014-1-27,44,43,42,43,40,39,0,0,0,29.73,29.49,29.28,7,5,2,31,22,40,0.39,8,Rain,75
2014-1-28,42,42,41,40,39,38,0,0,0,29.82,29.78,29.73,9,7,4,35,20,41,0.27,8,Rain,94
2014-1-29,42,39,35,40,39,35,0,0,0,30.10,29.90,29.76,10,8,2,35,10,41,0.20,8,Rain,119
2014-1-30,42,37,32,39,35,30,0,0,0,30.19,30.16,30.11,10,9,2,12,3,14,0.00,6,,249
2014-1-31,37,35,33,36,35,32,0,0,0,30.29,30.24,30.19,10,4,0,9,3,10,0.00,7,Fog,192